Gilead, NE

7:56 AM CST on February 08, 2016 (GMT -0600)
Hebron Municipal

Weather History for KHJH - November, 2011

Change the Weather History Date:

Thursday, November 24, 2011

  Actual Average Record
Temperature  
Mean Temperature 53 °F -  
Max Temperature 69 °F 43 °F 69 °F (2011)
Min Temperature 37 °F 22 °F 7 °F (1950)
Degree Days  
Heating Degree Days 12    
Growing Degree Days 3 (Base 50)    
Moisture  
Dew Point 38 °F    
Average Humidity 60    
Maximum Humidity 87    
Minimum Humidity 28    
Precipitation  
Precipitation 0.00 in - - ()
Sea Level Pressure  
Sea Level Pressure 29.94 in    
Wind  
Wind Speed 10 mph (SSW)    
Max Wind Speed 23 mph    
Max Gust Speed 32 mph    
Visibility 10 miles    
Events      
Averages and records for this station are not official NWS values.
T = Trace of Precipitation, MM = Missing Value Source: NWS Daily Summary

Daily Weather History Graph

Daily Weather History Graph

Search for Another Location

Airport or City:

Trip Planner

Search our weather history database for the weather conditions in past years. The results will help you decide how hot, cold, wet, or windy it might be!

Date:

Astronomy

Nov. 24, 2011 Rise Set
Actual Time 7:25 AM CST 5:07 PM CST
Civil Twilight 6:56 AM CST 5:37 PM CST
Nautical Twilight 6:22 AM CST 6:10 PM CST
Astronomical Twilight 5:50 AM CST 6:43 PM CST
Moon 6:45 AM CST (11/24) 4:39 PM CST (11/24)
Length of Visible Light 10h 41m
Length of Day
9h 42m
Waning Crescent, 0% of the Moon is Illuminated
Nov 24
Waning Crescent
Nov 25
New
Dec 2
First Quarter
Dec 10
Full
Dec 17
Last Quarter

Hourly Weather History & Observations

Time (CST) Temp. Windchill Dew Point Humidity Pressure Visibility Wind Dir Wind Speed Gust Speed Precip Events Conditions
12:15 AM 42.8 °F 38.6 °F 33.8 °F 70% 30.06 in 10.0 mi SSW 6.9 mph - N/A   Clear
12:35 AM 42.8 °F 38.0 °F 33.8 °F 70% 30.06 in 10.0 mi South 8.1 mph - N/A   Clear
12:55 AM 42.8 °F 39.3 °F 33.8 °F 70% 30.05 in 10.0 mi South 5.8 mph - N/A   Clear
1:15 AM 42.8 °F 40.1 °F 33.8 °F 70% 30.05 in 10.0 mi South 4.6 mph - N/A   Clear
1:35 AM 41.0 °F - 33.8 °F 76% 30.04 in 10.0 mi Calm Calm - N/A   Clear
1:55 AM 37.4 °F - 32.0 °F 81% 30.04 in 10.0 mi Calm Calm - N/A   Clear
2:15 AM 41.0 °F - 33.8 °F 76% 30.04 in 10.0 mi Calm Calm - N/A   Clear
2:35 AM 39.2 °F - 33.8 °F 81% 30.03 in 10.0 mi Calm Calm - N/A   Clear
3:15 AM 44.6 °F 40.7 °F 37.4 °F 76% 30.03 in 10.0 mi South 6.9 mph - N/A   Clear
3:35 AM 44.6 °F 39.7 °F 37.4 °F 76% 30.02 in 10.0 mi SSW 9.2 mph 16.1 mph N/A   Clear
3:55 AM 44.6 °F 38.8 °F 37.4 °F 76% 30.01 in 10.0 mi South 11.5 mph - N/A   Clear
4:15 AM 42.8 °F 37.5 °F 37.4 °F 81% 30.01 in 10.0 mi South 9.2 mph - N/A   Clear
4:35 AM 42.8 °F 38.0 °F 37.4 °F 81% 30.01 in 10.0 mi South 8.1 mph - N/A   Clear
4:55 AM 41.0 °F 36.4 °F 35.6 °F 81% 30.00 in 10.0 mi South 6.9 mph - N/A   Clear
5:15 AM 41.0 °F 37.1 °F 35.6 °F 81% 30.00 in 10.0 mi South 5.8 mph - N/A   Clear
5:55 AM 42.8 °F 37.0 °F 37.4 °F 81% 29.99 in 10.0 mi South 10.4 mph - N/A   Clear
6:15 AM 42.8 °F 36.6 °F 37.4 °F 81% 29.99 in 10.0 mi South 11.5 mph - N/A   Clear
6:35 AM 42.8 °F 36.6 °F 37.4 °F 81% 29.99 in 10.0 mi South 11.5 mph - N/A   Clear
6:55 AM 42.8 °F 36.2 °F 37.4 °F 81% 29.99 in 10.0 mi South 12.7 mph - N/A   Clear
7:15 AM 42.8 °F 36.6 °F 37.4 °F 81% 29.99 in 10.0 mi South 11.5 mph - N/A   Clear
7:35 AM 41.0 °F 33.9 °F 37.4 °F 87% 29.99 in 10.0 mi South 12.7 mph - N/A   Clear
7:55 AM 41.0 °F 33.5 °F 37.4 °F 87% 29.99 in 10.0 mi South 13.8 mph - N/A   Clear
8:15 AM 42.8 °F 36.2 °F 37.4 °F 81% 29.98 in 10.0 mi South 12.7 mph 18.4 mph N/A   Clear
8:35 AM 44.6 °F 37.8 °F 37.4 °F 76% 29.98 in 10.0 mi South 15.0 mph - N/A   Clear
8:55 AM 46.4 °F 41.5 °F 39.2 °F 76% 29.98 in 10.0 mi South 10.4 mph 18.4 mph N/A   Clear
9:15 AM 50.0 °F - 41.0 °F 71% 29.97 in 10.0 mi SSW 15.0 mph 20.7 mph N/A   Clear
9:35 AM 51.8 °F - 41.0 °F 67% 29.97 in 10.0 mi South 15.0 mph 19.6 mph N/A   Clear
9:55 AM 53.6 °F - 41.0 °F 62% 29.96 in 10.0 mi SSW 12.7 mph 20.7 mph N/A   Clear
10:15 AM 55.4 °F - 41.0 °F 58% 29.96 in 10.0 mi SSW 16.1 mph 20.7 mph N/A   Clear
10:35 AM 55.4 °F - 41.0 °F 58% 29.95 in 10.0 mi SSW 13.8 mph 21.9 mph N/A   Clear
10:55 AM 59.0 °F - 41.0 °F 51% 29.94 in 10.0 mi SSW 15.0 mph 24.2 mph N/A   Clear
11:15 AM 60.8 °F - 39.2 °F 45% 29.93 in 10.0 mi South 19.6 mph 24.2 mph N/A   Clear
11:35 AM 62.6 °F - 37.4 °F 39% 29.92 in 10.0 mi SSW 15.0 mph 29.9 mph N/A   Clear
11:55 AM 62.6 °F - 37.4 °F 39% 29.92 in 10.0 mi SSW 18.4 mph 28.8 mph N/A   Clear
12:15 PM 64.4 °F - 39.2 °F 40% 29.90 in 10.0 mi SSW 15.0 mph 26.5 mph N/A   Clear
12:35 PM 68.0 °F - 37.4 °F 33% 29.89 in 10.0 mi SSW 17.3 mph 29.9 mph N/A   Clear
1:15 PM 68.0 °F - 33.8 °F 28% 29.88 in 10.0 mi SSW 20.7 mph 31.1 mph N/A   Clear
1:35 PM 69.8 °F - 35.6 °F 28% 29.87 in 10.0 mi SSW 18.4 mph 28.8 mph N/A   Clear
2:15 PM 69.8 °F - 35.6 °F 28% 29.86 in 10.0 mi SSW 17.3 mph 32.2 mph N/A   Clear
2:35 PM 69.8 °F - 37.4 °F 31% 29.85 in 10.0 mi South 16.1 mph 25.3 mph N/A   Clear
2:55 PM 69.8 °F - 35.6 °F 28% 29.85 in 10.0 mi SSW 21.9 mph 29.9 mph N/A   Clear
3:15 PM 69.8 °F - 35.6 °F 28% 29.85 in 10.0 mi South 19.6 mph 31.1 mph N/A   Clear
3:35 PM 69.8 °F - 35.6 °F 28% 29.84 in 10.0 mi South 23.0 mph 29.9 mph N/A   Clear
3:55 PM 69.8 °F - 35.6 °F 28% 29.84 in 10.0 mi SSW 16.1 mph 27.6 mph N/A   Clear
4:15 PM 68.0 °F - 37.4 °F 33% 29.84 in 10.0 mi South 21.9 mph 29.9 mph N/A   Clear
4:35 PM 66.2 °F - 37.4 °F 35% 29.84 in 10.0 mi South 19.6 mph 26.5 mph N/A   Clear
4:55 PM 64.4 °F - 37.4 °F 37% 29.84 in 10.0 mi South 18.4 mph 24.2 mph N/A   Clear
5:15 PM 62.6 °F - 37.4 °F 39% 29.84 in 10.0 mi SSW 11.5 mph 20.7 mph N/A   Clear
5:35 PM 62.6 °F - 39.2 °F 42% 29.85 in 10.0 mi SSW 11.5 mph 18.4 mph N/A   Clear
5:55 PM 60.8 °F - 41.0 °F 48% 29.85 in 10.0 mi South 13.8 mph 19.6 mph N/A   Clear
6:15 PM 60.8 °F - 41.0 °F 48% 29.85 in 10.0 mi South 12.7 mph - N/A   Clear
6:35 PM 59.0 °F - 41.0 °F 51% 29.85 in 10.0 mi South 15.0 mph - N/A   Clear
6:55 PM 59.0 °F - 44.6 °F 59% 29.86 in 10.0 mi South 13.8 mph - N/A   Clear
7:35 PM 59.0 °F - 46.4 °F 63% 29.86 in 10.0 mi South 19.6 mph 27.6 mph N/A   Clear
7:55 PM 57.2 °F - 46.4 °F 67% 29.85 in 10.0 mi South 18.4 mph 25.3 mph N/A   Clear
8:15 PM 55.4 °F - 46.4 °F 72% 29.85 in 10.0 mi South 18.4 mph 25.3 mph N/A   Clear
8:35 PM 55.4 °F - 48.2 °F 77% 29.85 in 10.0 mi South 16.1 mph 25.3 mph N/A   Clear
8:55 PM 55.4 °F - 48.2 °F 77% 29.85 in 10.0 mi South 16.1 mph 21.9 mph N/A   Clear
9:15 PM 55.4 °F - 48.2 °F 77% 29.85 in 10.0 mi SSW 15.0 mph 23.0 mph N/A   Clear
9:35 PM 53.6 °F - 46.4 °F 77% 29.85 in 10.0 mi SSW 15.0 mph 23.0 mph N/A   Clear
9:55 PM 53.6 °F - 46.4 °F 77% 29.83 in 10.0 mi South 13.8 mph 20.7 mph N/A   Clear
10:15 PM 53.6 °F - 46.4 °F 77% 29.84 in 10.0 mi SSW 13.8 mph 19.6 mph N/A   Clear
10:35 PM 51.8 °F - 46.4 °F 82% 29.83 in 10.0 mi SSW 11.5 mph 18.4 mph N/A   Clear
11:15 PM 51.8 °F - 46.4 °F 82% 29.82 in 10.0 mi SSW 12.7 mph 18.4 mph N/A   Clear
11:35 PM 51.8 °F - 46.4 °F 82% 29.81 in 10.0 mi South 15.0 mph 20.7 mph N/A   Clear
11:55 PM 51.8 °F - 46.4 °F 82% 29.81 in 10.0 mi SSW 13.8 mph 18.4 mph N/A   Clear